Current weather by "City, St" or "zip code"  
 

Current Conditions: Laurel Municipal Airport, MT

NULL


57.0 F

Last Updated on Oct 21 2021, 10:55 am MDT
Humidity: 51%
Wind Speed: SW 10.4 mph
Barometer 30.16 in
Dewpoint: 39.2 F
Visibility: 10.00 mi
Precip: --
Heat Index: NA
Wind Chill: 55 F
Current conditions at:

Laurel Municipal Airport, MT (K6S8)

Lat: 45.70517 Lon: 108.76077

Local Radar Image active severe weather and emergency alerts image image weather storm and storm spotter reports image weather observation monitoring service image
Local
Radar
Active
Alerts
Storm Reports Obs
Monitoring

Sign-up For Email & Text Message Weather Alert Notification Services



Advertise Here

Observation History for Laurel Municipal Airport, MT


Time Wind
(mph)
Vis
(mi)
Weather Precip (in) Temperature (F) Relative
Humidity
Wind
Chill
(F)
Heat
Index
(F)
Pressure
Air Dwpt altimeter
(in)
sea level
(mb)
Rmks
10:55 am MDT SW 10.4 10.00 NULL -- 57.0 39.2 51% 55 NA 30.16 M
10:40 am MDT SW 11.5 10.00 NULL -- 55.0 39.2 55% 52 NA 30.16 M
9:25 am MDT N 0.0 10.00 NULL -- 45.0 39.2 81% NA NA 30.17 M
8:55 am MDT S 5.8 10.00 NULL -- 46.0 39.2 76% 43 NA 30.18 M
8:40 am MDT SW 4.6 10.00 NULL -- 48.0 37.4 66% 46 NA 30.18 M
7:55 am MDT N 0.0 10.00 NULL -- 45.0 37.4 76% NA NA 30.17 M
6:55 am MDT N 0.0 10.00 NULL -- 43.0 35.6 76% NA NA 30.16 M
5:55 am MDT W 3.5 10.00 NULL -- 43.0 35.6 76% NA NA 30.16 M
4:55 am MDT N 0.0 10.00 NULL -- 41.0 35.6 81% NA NA 30.15 M
3:55 am MDT S 4.6 10.00 NULL -- 39.0 35.6 87% 36 NA 30.14 M
2:55 am MDT SW 8.1 10.00 NULL -- 48.0 37.4 66% 44 NA 30.14 M
1:55 am MDT SW 5.8 G 11.5 9.00 NULL -- 46.0 37.4 71% 43 NA 30.12 M
12:55 am MDT N 0.0 10.00 NULL -- 43.0 35.6 76% NA NA 30.11 M
11:55 pm MDT SW 11.5 10.00 NULL -- 46.0 37.4 71% 41 NA 30.11 M
10:55 pm MDT SW 10.4 8.00 NULL -- 46.0 37.4 71% 41 NA 30.11 M
9:55 pm MDT N 0.0 10.00 NULL -- 43.0 35.6 76% NA NA 30.10 M
9:40 pm MDT SW 8.1 10.00 NULL -- 45.0 35.6 71% 41 NA 30.09 M
8:55 pm MDT N 0.0 10.00 NULL -- 46.0 33.8 62% NA NA 30.10 M
7:55 pm MDT N 3.5 10.00 NULL -- 46.0 33.8 62% NA NA 30.09 M
7:40 pm MDT N 5.8 10.00 NULL -- 46.0 33.8 62% 43 NA 30.09 M
6:55 pm MDT N 0.0 10.00 NULL -- 46.0 33.8 62% NA NA 30.08 M
5:55 pm MDT NE 5.8 10.00 NULL -- 50.0 37.4 62% 48 NA 30.08 M
5:40 pm MDT NE 8.1 10.00 NULL -- 52.0 37.4 58% 49 NA 30.08 M
4:55 pm MDT E 4.6 G 11.5 10.00 NULL -- 57.0 37.4 48% 57 NA 30.08 M

Regional Weather Observation


Billings, Billings Logan International Airport, MT (KBIL)

Partly Cloudy
53.0 F

Big Timber Airport, MT (K6S0)

Overcast
55.0 F

Kilo - Harlowton, MT (K1KM)

Overcast
53.0 F

N BAR Ranch Airport, MT (KMVH)

Overcast
54.0 F

Big Horn County Airport, MT (K00U)

Mostly Cloudy
50.0 F

Livingston, Mission Field Airport, MT (KLVM)

Mostly Cloudy
58.0 F

Advertise Here


Advertise Here